Location: El Mouella
(16.4949°N, 9.1594°W)
Time: 20:53:17
(UTC+00:00)

STARLINK-60 - Pass Details

Date: 06 October 2020
Orbit: 350 x 360 km, 53.0° (Epoch: 20 October)

Event Time Altitude Azimuth Distance (km) Brightness Sun altitude
Rises 19:34:04 0° 247° (WSW) 2,165 7.9 -18.2°
Reaches altitude 10° 19:36:42 10° 273° (W) 1,316 6.8 -18.8°
Maximum altitude 19:38:26 15° 310° (NW) 1,080 5.8 -19.3°
Drops below altitude 10° 19:40:11 10° 347° (NNW) 1,311 5.7 -19.7°
Enters shadow 19:40:51 - 356° (N) 1,493 5.9 -19.8°
